Location: Bow
(51.5261°N, 0.0167°W)
Time: 03:49:19
(UTC+00:00)

NOSS 3-1 (C) - Pass Details

Date: 18 September 2020
Orbit: 743 x 1466 km, 63.4° (Epoch: 09 October)

Event Time Altitude Azimuth Distance (km) Brightness Sun altitude
Rises 23:19:13 0° 311° (NW) 3,766 7.2 -36.6°
Reaches altitude 10° 23:21:44 10° 316° (NW) 2,912 6.5 -36.6°
Maximum altitude 23:28:40 57° 35° (NE) 1,418 4.3 -36.8°
Enters shadow 23:28:49 56° 39° (NE) 1,422 4.3 -36.8°
